Location: Marcé
(47.5801°N, 0.3280°W)
Time: 03:52:37
(UTC+01:00)

Explorer 11/Cluster Stage 4 - Pass Details

Date: 03 December 2021
Orbit: 467 x 1255 km, 28.8° (Epoch: 26 January)

Event Time Altitude Azimuth Distance (km) Brightness Sun altitude
Rises 08:07:22 0° 247° (WSW) 4,113 9.9 -4.3°
Drops below altitude 10° 08:14:32 10° 205° (SSW) 3,224 9.8 -3.2°
Maximum altitude 08:14:51 10° 203° (SSW) 3,223 9.8 -3.2°
Sets 08:22:22 0° 159° (SSE) 4,129 11.2 -2.1°
